www.pogodaiklimat.ru

Архив погоды в Бремене (Германия)

Время
(UTC), дата
16 16.10
17 16.10
18 16.10
19 16.10
20 16.10
21 16.10
22 16.10
23 16.10
00 17.10
01 17.10
02 17.10
03 17.10
04 17.10
05 17.10
06 17.10
07 17.10
08 17.10
09 17.10
10 17.10
11 17.10
12 17.10
13 17.10
14 17.10
15 17.10
16 17.10
17 17.10
18 17.10
19 17.10
20 17.10
21 17.10
22 17.10
23 17.10
00 18.10
01 18.10
02 18.10
03 18.10
04 18.10
05 18.10
06 18.10
07 18.10
08 18.10
09 18.10
10 18.10
11 18.10
12 18.10
13 18.10
14 18.10
15 18.10
16 18.10
17 18.10
18 18.10
19 18.10
20 18.10
21 18.10
22 18.10
23 18.10
00 19.10
01 19.10
02 19.10
03 19.10
04 19.10
05 19.10
06 19.10
07 19.10
08 19.10
09 19.10
10 19.10
11 19.10
12 19.10
13 19.10
14 19.10
15 19.10
16 19.10
17 19.10
18 19.10
19 19.10
20 19.10
21 19.10
22 19.10
23 19.10
00 20.10
01 20.10
02 20.10
03 20.10
04 20.10
05 20.10
06 20.10
07 20.10
08 20.10
09 20.10
10 20.10
11 20.10
12 20.10
13 20.10
14 20.10
15 20.10
16 20.10
17 20.10
18 20.10
19 20.10
20 20.10
21 20.10
22 20.10
23 20.10
00 21.10
01 21.10
02 21.10
03 21.10
04 21.10
05 21.10
06 21.10
07 21.10
08 21.10
09 21.10
10 21.10
11 21.10
12 21.10
13 21.10
14 21.10
15 21.10
16 21.10
17 21.10
18 21.10
19 21.10
20 21.10
21 21.10
22 21.10
23 21.10
00 22.10
02 22.10
03 22.10
04 22.10
05 22.10
06 22.10
07 22.10
08 22.10
09 22.10
10 22.10
11 22.10
12 22.10
13 22.10
14 22.10
15 22.10
16 22.10
17 22.10
18 22.10
19 22.10
20 22.10
21 22.10
22 22.10
23 22.10
00 23.10
01 23.10
02 23.10
03 23.10
04 23.10
05 23.10
06 23.10
07 23.10
08 23.10
09 23.10
10 23.10
11 23.10
12 23.10
13 23.10
14 23.10
15 23.10
16 23.10
Ветер
(напр.,м/с)
Видим. Явления Облачность Т
(С)
Тd
(С)
f
(%)
Тe
(С)
Тes
(С)
Комфортность P
(гПа)
Po
(гПа)
Тmin
(С)
Tmax
(С)
R
(мм)
R24
(мм)
S
(см)
ЮЗ 4-5
{6}
40 км 9/9 1440 м
[Sc]
+10.4 +5.2 70 +8 +8 тепло 1020.8 1020.1
Ю 3-5
{6}
30 км 9/9 1440 м
[Sc]
+9.7 +4.9 72 +8 +8 тепло 1020.7 1020.0
Ю 3 40 км 9/9 1500 м
[Sc]
+9.4 +4.9 73 +7 +7 по сезону 1020.5 1019.8 +5.9 +11.2
ЮЗ 3-4
{4}
40 км 8/8 1500 м
[Sc]
+8.5 +5.1 79 +6 +6 по сезону 1020.5 1019.8
Ю 3-4
{5}
40 км 9/9 1500 м
[Sc]
+8.5 +4.8 78 +6 +6 тепло 1020.1 1019.4
Ю 3 40 км 9/9 1500 м
[Sc]
+8.5 +4.4 75 +6 +6 по сезону 1020.1 1019.4
ЮЗ 4-5
{5}
40 км 9/9 1500 м
[Sc]
+8.7 +3.9 72 +6 +6 по сезону 1020.0 1019.3
ЮЗ 4-6
{7}
40 км 9/9 1200 м
[Sc]
+8.6 +4.0 73 +6 +6 тепло 1019.6 1018.9
ЮЗ 5 40 км 9/9 1500 м
[Sc]
+8.7 +3.9 72 +5 +5 по сезону 1019.3 1018.6
ЮЗ 5-7
{8}
30 км в посл. час дождь 9/9 1200 м
[Sc]
+8.8 +4.2 73 +5 +5 тепло 1019.2 1018.5
ЮЗ 5-7
{7}
30 км 9/9 1380 м
[Sc]
+8.8 +4.5 74 +5 +5 тепло 1018.9 1018.2
ЮЗ 5 40 км {дождь} 9/9 1500 м
[Sc]
+8.9 +4.7 75 +6 +6 по сезону 1018.8 1018.1 0.0
ЮЗ 4 30 км 9/9 1350 м
[Sc]
+8.8 +5.0 77 +6 +6 тепло 1018.8 1018.1
ЮЗ 3-4
{5}
30 км 9/9 1140 м
[Sc]
+8.9 +5.3 78 +7 +7 тепло 1018.8 1018.1
ЮЗ 4 28 км {дождь} 9/9 1000 м
[Sc]
+8.9 +5.5 79 +6 +6 по сезону 1018.8 1018.1 +7.8 +9.5 0.0
ЮЗ 4 22 км 9/9 1000 м
[Cu Sc]
+9.2 +5.8 79 +6 +6 тепло 1019.0 1018.3
ЮЗ 3 25 км 9/9 1050 м
[Cu Sc]
+9.6 +5.9 78 +7 +7 тепло 1019.5 1018.8
ЮЗ 4 28 км 9/9 870 м
[Cu Sc]
+10.6 +6.1 74 +8 +8 по сезону 1019.6 1018.9
ЮЗ 5 25 км 9/9 1140 м
[Sc]
+11.4 +5.9 69 +9 +9 тепло 1019.7 1019.0
ЮЗ 5-6
{7}
45 км 10/9 1500 м
[Sc]
+12.5 +6.5 67 +10 +10 тепло 1019.7 1019.1
ЮЗ 4 45 км 10/9 1500 м
[Sc]
+12.2 +6.2 67 +10 +10 по сезону 1019.8 1019.1
ЮЗ 3-5
{6}
45 км 10/9 1500 м
[Sc]
+12.0 +6.5 69 +11 +11 тепло 1019.6 1018.9
ЮЗ 3-4
{5}
45 км 10/9 1500 м
[Sc]
+12.2 +6.8 70 +11 +11 тепло 1019.6 1018.9
ЮЗ 4 45 км 9/9 1500 м
[Sc]
+11.7 +6.0 68 +10 +10 тепло 1019.6 1018.9
ЮЗ 3-4
{5}
45 км 10/9 1500 м
[Sc]
+11.4 +6.1 70 +10 +10 тепло 1019.7 1019.0
ЮЗ 3 45 км 9/9 1170 м
[Sc]
+11.1 +6.2 72 +9 +9 тепло 1020.1 1019.4
ЮЗ 3 40 км 9/9 1000 м
[Sc]
+10.9 +6.3 73 +9 +9 тепло 1020.4 1019.7 +8.9 +12.5
ЮЗ 3 30 км 9/9 1050 м
[Sc]
+10.8 +6.5 75 +9 +9 тепло 1020.4 1019.7
ЮЗ 3 30 км 9/4 1500 м
[Sc Ac trans]
+10.8 +6.4 74 +9 +9 тепло 1020.8 1020.1
ЮЗ 3 30 км 9/6 1500 м
[Sc Ac trans]
+10.0 +6.3 78 +8 +8 тепло 1021.1 1020.4
Ю 3-5
{5}
30 км 4/4 1500 м
[Sc Ac trans]
+9.1 +6.0 81 +7 +7 тепло 1021.1 1020.4
ЮЗ 4 30 км 9/6 1500 м
[Sc Ac trans]
+9.7 +6.3 79 +7 +7 тепло 1021.5 1020.8
ЮЗ 3 30 км 9/9 1500 м
[Sc]
+9.8 +6.5 80 +8 +8 тепло 1021.6 1020.9
ЮЗ 3-4
{5}
30 км 9/9 2000 м
[Sc]
+10.3 +6.3 76 +8 +8 тепло 1021.7 1021.0
ЮЗ 2 30 км 9/6 1500 м
[Sc Ac trans]
+9.8 +6.2 78 +8 +8 тепло 1021.8 1021.1
Ю 2 30 км 9/9 2000 м
[Sc]
+9.4 +6.0 79 +8 +8 тепло 1021.7 1021.0
Ю 3 30 км в посл. час дождь 9/4 1500 м
[Sc Ac trans Ci fib]
+9.2 +5.8 79 +7 +7 тепло 1021.7 1021.0
Ю 2-3
{4}
30 км 9/9 1500 м
[Sc]
+9.4 +5.8 78 +8 +8 тепло 1022.0 1021.3
Ю 3 25 км {дождь} 9/9 1500 м
[Sc]
+9.3 +5.8 79 +7 +7 тепло 1022.3 1021.6 +8.4 +11.0 0.0
Ю 3-4
{4}
25 км 9/9 1500 м
[Sc]
+9.7 +6.3 79 +7 +7 тепло 1022.7 1022.0
Ю 3 30 км 9/3 1500 м
[Sc Ac trans]
+10.6 +6.3 75 +9 +9 тепло 1023.1 1022.4
ЮЗ 3 30 км 9/1 1500 м
[Sc Ac trans]
+11.2 +6.6 73 +9 +10 тепло 1023.5 1022.8
ЮЗ 2-3
{5}
30 км 9/0
[Ac trans]
+11.9 +7.1 72 +11 +12 тепло 1023.6 1022.9
Ю 3-4
{5}
30 км 9/0
[Ac trans]
+13.2 +7.8 70 +12 +14 тепло 1023.4 1022.7
Ю 4 30 км 9/0
[Ac trans]
+13.8 +7.9 68 +12 +14 тепло 1022.6 1022.0
Ю 3-5
{5}
30 км 9/0
[Ac trans]
+14.3 +8.0 66 +13 +15 тепло 1022.2 1021.6
Ю 4 30 км 9/0
[Ac trans Cs]
+14.2 +7.5 64 +13 +14 тепло 1021.4 1020.8
ЮВ 4 30 км 9/0
[Ac trans Cs]
+13.4 +8.0 70 +12 +12 тепло 1021.3 1020.7
ЮВ 3 30 км 9/0
[Ac trans Ci fib]
+12.8 +8.0 73 +11 +11 тепло 1021.0 1020.4
ЮВ 2 30 км 9/0
[Ac trans Ci sp]
+11.2 +7.9 80 +10 +10 тепло 1021.2 1020.5
ЮВ 2 30 км 9/0
[Ac As]
+11.2 +7.9 80 +10 +10 тепло 1021.3 1020.6 +9.2 +14.5
ЮВ 2 30 км 9/0
[Ac trans Ci sp]
+10.3 +7.3 82 +9 +9 тепло 1021.1 1020.4
ЮВ 4-6
{6}
30 км 6/0
[Ac trans]
+10.0 +7.4 84 +7 +7 тепло 1020.3 1019.6
ЮВ 3 30 км 9/0
[Ac trans]
+9.6 +7.3 86 +7 +7 тепло 1020.2 1019.5
Ю 3-4
{5}
30 км 9/0
[Ac As]
+10.0 +7.6 85 +8 +8 тепло 1020.3 1019.6
Ю 3-5
{6}
30 км 9/0
[Ac As]
+10.6 +7.4 81 +9 +9 тепло 1020.0 1019.3
Ю 4 30 км 9/1 2000 м
[Sc As op]
+10.8 +7.4 80 +8 +8 тепло 1019.5 1018.8
Ю 3-4
{6}
30 км слаб. дождь 9/0
[As op]
+10.6 +7.7 82 +9 +9 тепло 1019.4 1018.7
ЮВ 2-3
{4}
30 км в посл. час дождь 9/0
[As op]
+10.5 +7.8 83 +9 +9 тепло 1019.1 1018.4
Ю 3 30 км {дождь} 9/3 1320 м
[Sc Ci fib]
+10.3 +8.0 86 +8 +8 тепло 1018.4 1017.7 0.0
Ю 3 22 км слаб. дождь 9/9 750 м
[Sc]
+11.5 +8.2 80 +10 +10 тепло 1018.4 1017.7
Ю 4-5
{6}
22 км в посл. час дождь 9/9 720 м
[Sc]
+11.7 +8.8 82 +10 +10 тепло 1017.6 1017.0
Ю 3 18 км {дождь} 9/1 600 м
[Sc Ac trans Ci fib]
+11.2 +8.7 85 +9 +9 тепло 1017.2 1016.5 +8.7 +11.8 0.0
Ю 4 18 км 9/4 1500 м
[Sc Ac trans Ci fib]
+12.3 +9.4 82 +10 +10 тепло 1017.2 1016.6
Ю 4 18 км 10/10 450 м
[Sc]
+13.3 +10.2 81 +12 +12 тепло 1017.1 1016.5
Ю 5 15 км 9/9 420 м
[Sc]
+14.1 +10.8 81 +12 +12 тепло 1016.7 1016.1
Ю 5-7
{8}
15 км 10/9 330 м
[Sc]
+14.5 +12.2 86 +13 +13 тепло 1016.3 1015.7
Ю 4-7
{8}
3500 м слаб. морось 10/10 210 м
[Frnb]
+14.0 +12.8 92 +12 +12 тепло 1016.0 1015.4
Ю 4 4500 м слаб. морось 10/9 150 м
[Frnb]
+14.2 +13.5 96 +13 +13 тепло 1015.5 1014.9 0.0
Ю 4-6
{7}
3800 м слаб. морось 10/9 150 м
[Frnb]
+14.6 +13.7 94 +13 +13 тепло 1014.9 1014.3
Ю 4-5
{7}
4800 м слаб. морось 10/9 150 м
[Frnb]
+14.9 +14.1 95 +14 +14 тепло 1014.3 1013.7
Ю 5 6000 м слаб. морось {дождь} 10/9 150 м
[Frnb]
+15.4 +14.7 96 +14 +14 тепло 1013.5 1012.9 0.3
ЮЗ 5-8
{9}
5000 м в посл. час морось 10/9 150 м
[St]
+15.8 +15.1 96 +15 +15 тепло 1013.0 1012.4
ЮЗ 6-8
{9}
9000 м слаб. морось 10/10 180 м
[Frnb]
+16.3 +15.5 95 +15 +15 тепло 1012.9 1012.3
ЮЗ 5 25 км в посл. час морось {дождь} 9/9 200 м
[Sc]
+16.5 +15.4 93 +16 +16 тепло 1012.6 1012.0 +11.2 +16.7 0.0
ЮЗ 5 25 км 9/1 360 м
[Cu hum Ci fib]
+16.3 +14.8 91 +15 +15 тепло 1012.3 1011.7
ЮЗ 6 20 км 9/9 360 м
[Cu Sc]
+16.5 +15.1 91 +15 +15 тепло 1012.1 1011.5
ЮЗ 7 20 км 9/9 420 м
[Sc]
+16.9 +14.9 88 +16 +16 тепло 1011.9 1011.3
ЮЗ 7 25 км 9/4 450 м
[Sc Ci fib]
+16.8 +14.4 86 +16 +16 тепло 1011.2 1010.6
ЮЗ 7 25 км 9/5 1320 м
[Sc Ci fib]
+16.1 +13.9 87 +15 +15 тепло 1010.7 1010.1
ЮЗ 4 25 км 9/1 1000 м
[Sc Ci fib]
+15.5 +13.5 88 +14 +14 тепло 1009.9 1009.3
ЮЗ 4-7
{8}
25 км 9/0
[Ci fib]
+15.2 +13.0 87 +14 +14 тепло 1009.1 1008.5
Ю 5-8
{8}
25 км 9/0
[Ci fib]
+15.1 +12.2 83 +14 +14 тепло 1008.2 1007.6
ЮЗ 6 30 км 9/0
[Ci fib]
+15.0 +11.5 80 +13 +13 тепло 1007.3 1006.7
ЮЗ 6-9
{9}
30 км 9/0
[Ci fib]
+15.2 +11.0 76 +14 +14 тепло 1006.5 1005.9
ЮЗ 6-8
{9}
45 км 9/0
[Ci fib]
+15.0 +10.6 75 +13 +13 тепло 1006.0 1005.4
Ю 6 45 км 9/0
[Ac trans Ci fib]
+15.1 +10.5 74 +13 +13 тепло 1004.9 1004.3 +14.7 +17.1
Ю 6 45 км 9/0
[Ac trans Ci sp]
+15.2 +10.4 73 +14 +14 тепло 1004.2 1003.6
ЮЗ 6 45 км 9/0
[Ac As Ci sp]
+15.7 +10.8 73 +14 +15 тепло 1003.4 1002.8
Ю 7 40 км 9/8 2000 м
[Sc Ac trans]
+16.3 +11.2 72 +15 +15 тепло 1002.5 1001.9
Ю 8 40 км слаб. дождь 9/1 2000 м
[Sc Ac As]
+17.0 +11.9 72 +16 +16 тепло 1001.2 1000.6
ЮЗ 9 40 км в посл. час дождь 9/6 750 м
[Cu Sc Ac trans]
+17.9 +12.1 69 +17 +17 тепло 1000.9 1000.3
ЮЗ 9 45 км {дождь} 9/9 720 м
[Sc]
+17.4 +12.6 73 +16 +16 тепло 1000.7 1000.1 0.0
ЮЗ 11 15 км слаб. дождь 10/9 720 м
[Cu Sc]
+17.5 +12.6 73 +16 +16 тепло 999.9 999.3
ЮЗ 10 35 км в посл. час дождь 9/9 800 м
[Cu Sc]
+17.6 +12.5 72 +16 +16 тепло 999.8 999.2
ЮЗ 9 35 км {дождь} 9/5 840 м
[Cu med, cong Ac trans Ci fib]
+17.2 +12.6 74 +16 +16 тепло 999.3 998.7 0.0
ЮЗ 8 35 км 9/6 750 м
[Cu med, cong Ac trans Ci fib]
+16.9 +12.6 76 +16 +16 тепло 998.8 998.2
ЮЗ 9 30 км осадки на расстоянии 9/1 660 м
[Cu hum Ac As Ci fib]
+16.1 +12.2 78 +14 +14 тепло 998.2 997.6
ЮЗ 8 30 км {дождь} 9/3 600 м
[Cu Sc Ac trans Ci fib]
+15.3 +12.2 82 +13 +13 тепло 997.6 997.0 +14.9 +18.2
ЮЗ 7 10 км слаб. ливневой дождь 9/9 480 м
[Cb calv]
+15.4 +12.4 82 +14 +14 тепло 997.4 996.8
ЮЗ 8 40 км в посл. час гроза {ливн. дождь} 9/1 360 м
[Cu Sc Ac trans Ci fib]
+14.1 +10.4 78 +12 +12 тепло 996.9 996.3
ЮЗ 4 40 км {гроза, ливн. дождь} 9/1 1500 м
[Sc Ac trans Ci fib]
+12.8 +10.9 88 +11 +11 тепло 996.6 996.0 2
Ю 3 30 км 9/6 800 м
[Sc Ac As Ci fib]
+12.4 +11.2 92 +11 +11 тепло 995.7 995.1
Ю 2 30 км 9/8 700 м
[Sc Ac trans Ci fib]
+13.8 +12.3 91 +13 +13 тепло 994.3 993.7
Ю 3 30 км в посл. час ливневой дождь {гроза} 8/4 600 м
[Sc Ac trans]
+13.3 +12.0 92 +12 +12 тепло 992.6 992.0 2
Ю 4 30 км слаб. дождь {пыльная буря} 9/9 750 м
[Sc]
+13.5 +11.9 90 +12 +12 тепло 990.4 989.8
Ю 4 8000 м дождь 10/10 300 м
[Sc]
+13.0 +11.8 92 +11 +11 тепло 987.7 987.1
ЮВ 5 12 км слаб. дождь 10/10 300 м
[Sc]
+13.2 +12.2 94 +11 +11 тепло 984.9 984.3 10
ЮЗ 13 40 км в посл. час дождь 8/5 420 м
[Cu Sc Ac trans]
+13.9 +10.1 78 +11 +11 тепло 983.8 983.2
ЮЗ 10 30 км в посл. час ливневой дождь 9/5 540 м
[Cu Sc Ac trans]
+12.2 +8.3 77 +9 +9 тепло 984.5 983.9
ЮЗ 8 9000 м слаб. дождь {ливн. дождь} 10/9 600 м
[Cu Sc]
+10.9 +8.8 87 +7 +7 по сезону 983.6 983.0 +10.9 +15.5 12
ЮЗ 14 15 км дождь 10/5 420 м
[Cu Sc As op]
+10.3 +8.0 86 +5 +5 тепло 983.5 982.9
З 10 15 км слаб. дождь 10/4 400 м
[Cu Sc As op]
+9.7 +7.5 86 +5 +5 тепло 987.4 986.8
З 9 30 км слаб. дождь 10/5 480 м
[Cu Sc Ac As]
+10.1 +8.4 89 +6 +6 по сезону 990.6 990.0 3
З 11 10 км слаб. ливневой дождь 9/9 480 м
[Cb calv]
+10.8 +8.8 87 +6 +6 по сезону 993.1 992.5
З 8 18 км слаб. ливневой дождь 9/6 450 м
[Cb calv Ac As]
+10.9 +8.9 87 +7 +7 тепло 995.2 994.6
З 9 10 км слаб. ливневой дождь 9/9 800 м
[Cb calv]
+10.4 +8.5 88 +6 +6 прохладно 996.4 995.8 1
З 9 25 км слаб. ливневой дождь 9/6 540 м
[Cb calv Ac trans]
+9.1 +6.7 85 +4 +5 прохладно 997.7 997.1
З 10 20 км слаб. ливневой дождь 9/9 540 м
[Cu Sc]
+8.8 +6.0 83 +4 +4 по сезону 999.0 998.4
З 8 25 км слаб. ливневой дождь 9/6 700 м
[Cu Sc Ac trans]
+8.6 +6.5 87 +4 +4 прохладно 1000.6 1000.0 5
З 6 30 км в посл. час ливневой дождь 8/5 420 м
[Cb cap Ac trans]
+8.2 +6.4 88 +4 +4 по сезону 1001.7 1001.1
З 7-9
{11}
30 км слаб. ливневой дождь 8/8 450 м
[Cb cap Ac trans]
+7.8 +4.9 82 +3 +3 по сезону 1003.5 1002.8
З 7 50 км в посл. час ливневой дождь 1/1 600 м
[Sc]
+6.4 +3.7 83 +1 +1 холодно 1004.9 1004.2 +5.9 +11.2 0.8
З 8-13
{13}
10 км слаб. ливневой дождь 9/9 450 м
[Cb cap]
+6.6 +3.7 82 +1 +1 прохладно 1006.6 1005.9
ЮЗ 9-14
{14}
40 км в посл. час ливневой дождь 1/1 450 м
[Cb cap Ac trans]
+6.1 +3.8 85 0 0 по сезону 1006.7 1006.0
ЮЗ 7 50 км в посл. час ливневой дождь 4/4 1200 м
[Sc Ci fib]
+5.9 +3.7 86 +1 +1 прохладно 1007.6 1006.9 1
З 7-10
{10}
45 км в посл. час ливневой дождь 1/1 1080 м
[Sc]
+6.1 +3.6 84 +1 +1 по сезону 1008.5 1007.8
ЮЗ 7-10
{11}
45 км 9/0
[Ci fib]
+6.0 +3.5 84 +1 +1 по сезону 1008.6 1007.9
ЮЗ 8 50 км {ливн. дождь} 9/6 1000 м
[Sc Ac trans Ci fib]
+6.4 +3.7 83 +1 +1 прохладно 1009.1 1008.4 1
ЮЗ 8 50 км в посл. час ливневой дождь 6/4 1110 м
[Cu Sc Ac trans]
+6.6 +3.9 83 +1 +1 по сезону 1008.9 1008.2
ЮЗ 8 50 км {ливн. дождь} 4/4 1230 м
[Sc]
+6.3 +3.7 83 +1 +1 прохладно 1008.3 1007.6 0.0
ЮЗ 8 50 км 5/3 1500 м
[Sc Ci sp]
+6.2 +3.4 82 +1 +1 по сезону 1007.6 1006.9
ЮЗ 9 30 км в посл. час ливневой дождь 9/3 1140 м
[Cu med, cong Ac trans]
+7.1 +3.5 78 +2 +2 тепло 1007.4 1006.7
ЮЗ 10 30 км в посл. час ливневой дождь 9/3 600 м
[Cu med, cong As trans]
+7.4 +3.6 77 +2 +2 по сезону 1006.6 1005.9 +5.4 +7.5 1
ЮЗ 10 30 км в посл. час ливневой дождь 8/6 630 м
[Cu Sc As trans Ci fib]
+7.5 +3.9 78 +2 +2 по сезону 1006.6 1005.9
ЮЗ 11 30 км в посл. час ливневой дождь 6/3 600 м
[Cu med, cong Ac trans]
+8.2 +4.6 78 +3 +3 тепло 1006.5 1005.8
ЮЗ 11 12 км слаб. ливневой дождь 9/9 540 м
[Cu Sc]
+8.5 +5.7 83 +3 +3 прохладно 1006.5 1005.8 0.0
З 11 18 км слаб. ливневой дождь 9/6 500 м
[Cu med, cong Ac As]
+8.9 +6.1 83 +4 +4 по сезону 1006.6 1006.0
З 10 4800 м ливневой дождь 9/9 300 м
[Cb calv]
+8.2 +6.9 92 +3 +3 по сезону 1007.7 1007.0
З 9 12 км слаб. ливневой дождь 9/9 450 м
[Cb calv]
+8.7 +6.9 88 +4 +4 холодно 1008.0 1007.3 5
З 8 20 км в посл. час ливневой дождь 9/6 540 м
[Cb calv Ac trans]
+9.7 +6.6 81 +6 +6 по сезону 1009.0 1008.4
З 8-11
{14}
25 км в посл. час ливневой дождь 4/3 750 м
[Cu med, cong Ac trans]
+10.0 +6.2 77 +6 +6 по сезону 1010.2 1009.6
З 8 25 км осадки на расстоянии {ливн. дождь} 6/6 700 м
[Cb calv]
+9.9 +4.7 70 +6 +6 по сезону 1011.2 1010.5 0.1
З 7 25 км в посл. час ливневой дождь 3/3 600 м
[Cb cap]
+8.1 +3.8 74 +4 +4 по сезону 1012.7 1012.0
З 5-7
{19}
30 км в посл. час ливневой дождь 3/3 600 м
[Cu Sc]
+6.8 +2.9 76 +3 +3 по сезону 1014.0 1013.3
З 6 30 км {ливн. дождь} 3/3 600 м
[Cu Sc]
+6.4 +2.9 78 +2 +2 прохладно 1015.1 1014.4 +5.9 +10.3 0.3
З 6-8
{8}
30 км 5/5 1500 м
[Sc]
+6.7 +3.0 77 +2 +2 по сезону 1016.4 1015.7
З 5-7
{8}
30 км 1/1 1350 м
[Sc]
+6.0 +2.9 80 +2 +2 по сезону 1017.2 1016.5
З 6 30 км 3/3 1260 м
[Sc]
+5.7 +3.1 83 +1 +1 прохладно 1018.0 1017.3
З 6-8
{8}
30 км 1/1 1260 м
[Sc]
+5.5 +2.9 83 +1 +1 по сезону 1018.9 1018.2
З 5-7
{8}
30 км в посл. час ливневой дождь 1/1 1350 м
[Sc]
+4.8 +2.9 87 0 0 по сезону 1019.6 1018.9
З 5 30 км {ливн. дождь} 5/5 1500 м
[Sc]
+5.3 +3.2 86 +1 +1 прохладно 1020.1 1019.4 0.1
З 5-8
{8}
30 км 3/3 1230 м
[Sc]
+5.5 +3.1 85 +1 +1 по сезону 1020.6 1019.9
З 5-8
{9}
30 км 6/6 1500 м
[Sc]
+5.0 +2.8 86 0 0 по сезону 1021.3 1020.6
З 3 30 км в посл. час ливневой дождь 8/8 1260 м
[Sc]
+4.9 +3.1 88 +1 +1 прохладно 1021.9 1021.2 0.0
З 2-3
{4}
30 км 3/3 1260 м
[Sc]
+4.0 +2.6 91 +1 +1 по сезону 1022.1 1021.4
З 3 30 км 5/5 1500 м
[Sc]
+4.4 +3.2 92 +1 +1 по сезону 1022.7 1022.0
З 3 30 км в посл. час ливневой дождь 1/1 600 м
[Cu Sc]
+4.3 +3.0 91 +1 +1 прохладно 1023.0 1022.3 +3.8 +6.9 0.1
З 4 50 км 9/4 900 м
[Cu Sc Ci fib]
+5.4 +3.7 89 +1 +1 по сезону 1023.8 1023.1
ЮЗ 2 50 км в посл. час ливневой дождь 8/3 750 м
[Cu Sc Ci fib]
+6.9 +4.8 86 +5 +5 тепло 1025.1 1024.4
З 5 40 км в посл. час ливневой дождь 9/8 600 м
[Cu Sc Ci fib]
+8.6 +5.5 81 +5 +5 по сезону 1025.9 1025.2 0.0
З 4 50 км 9/9 600 м
[Cu Sc]
+9.6 +5.7 77 +7 +7 по сезону 1026.4 1025.7
З 5 50 км 9/9 660 м
[Cu Sc]
+10.8 +5.9 72 +8 +8 тепло 1026.7 1026.0
З 5 50 км {ливн. дождь} 9/9 700 м
[Cu Sc]
+11.5 +5.7 68 +9 +9 по сезону 1027.0 1026.3
З 4 40 км 9/6 750 м
[Cu Sc Ci sp]
+11.3 +6.1 70 +9 +10 по сезону 1027.2 1026.5
З 3 40 км 8/1 840 м
[Cu Sc Ci fib]
+12.1 +5.4 64 +11 +12 тепло 1027.1 1026.4
З 3 40 км 9/5 840 м
[Cu Sc Ci fib]
+10.7 +4.9 67 +9 +9 по сезону 1027.4 1026.7
З 3 40 км 4/1 800 м
[Cu Sc Ci fib]
+9.8 +4.9 72 +8 +8 по сезону 1027.5 1026.8
Местоположение метеостанции Бремен (Германия): широта 53.05 долгота 8.80 высота над уровнем моря 3 м.
В архиве по умолчанию представлена погода в Бремене за последнюю неделю. Архивные данные за месяц целиком и за предыдущие месяцы, начиная с января 2011 года, Вы можете получить, выбрав интересующий диапазон дат из раскрывающегося списка и нажав кнопку "Найти!".
*Определитесь, кто Вы:
Внимание! Время в таблицах - всемирное. Для получения местного времени необходимо прибавить поправку, которая равна 1 ч.
Смотрите также архив погоды в соседних городах и на ближайших метеорологических станциях:
Партнеры нашего сайта:      
Пояснения к столбцам:
  • Ветер - указаны скорость ветра в м/с - средняя за 10 мин, порывы в срок и между сроками (в фигурных скобках) и направление, откуда дует ветер: С - северный,
  • СВ - северо-восточный, В - восточный, ЮВ - юго-восточный, Ю - южный, ЮЗ - юго-западный, З - западный, СЗ - северо-западный.
  • Видимость - горизонтальная дальность видимости в метрах или километрах. При видимости от 1 до 10 км при отсутствии осадков обычно наблюдается дымка, при ухудшении видимости до 1 км и менее - туман. В сухую погоду видимость может ухудшаться дымом, пылью или мглою.
  • Явления - указаны атмосферные явления, наблюдавшиеся в срок или в последний час перед сроком; фигурными скобками обозначены явления, наблюдавшиеся между сроками (за 1-3 часа до срока); квадратными скобками обозначены град или гололедные отложения с указанием их диаметра в мм.
  • Облачность - указаны через наклонную черту общая и нижняя облачность в баллах и высота нижней границы облаков в метрах; квадратными скобками обозначены формы облаков: Ci - перистые, Cs - перисто-слоистые, Cc - перисто-кучевые, Ac - высококучевые, As - высокослоистые, Sc - слоисто-кучевые, Ns - слоисто-дождевые, Cu - кучевые, Cb - кучево-дождевые. Подробнее классификацию облаков см. в Атласе облаков (PDF).
  • T - Температура воздуха - температура, измеренная на высоте 2 м над землей.
  • Td - Температура точки росы - температура, при понижении до которой содержащийся в воздухе водяной пар достигнет насыщения.
  • f - Относительная влажность воздуха - влажноcть воздуха, измеренная на высоте 2 м над землей.
  • Te - Эффективная температура - температура, которую ощущает одетый по сезону человек в тени. Характеристика душности погоды. При расчете учитывается влияние влажности воздуха и скорости ветра на теплоощущения человека.
  • Tes - Эффективная температура на солнце - температура, которую ощущает человек, с поправкой на солнечный нагрев. Характеристика знойности погоды. Зависит от высоты солнца над горизонтом, облачности и скорости ветра. Ночью, в пасмурную погоду, а также при ветре 12 м/с и более поправка равна нулю.
  • P - Атмосферное давление - приведенное к уровню моря атмосферное давление.
  • Po - Атмосферное давление - измеренное на уровне метеостанции атмосферное давление.
  • Tmin - Минимальная температура - минимум температуры воздуха на высоте 2 м над землей.
  • Tmax - Максимальная температура - максимум температуры воздуха на высоте 2 м над землей.
  • R - Количество осадков - Количество выпавших осадков за период времени, мм. При наведении курсора мыши на число - период времени, за который выпало указанное количество осадков.
  • R24 - Количество осадков - Количество выпавших осадков за 24 часа, мм.
  • S - Снежный покров - Высота снежного покрова, см. При наведении курсора мыши на число - состояние снежного покрова и степень покрытия местности в баллах.